TimeCDT,TemperatureF,Dew PointF,Humidity,Sea Level PressureIn,VisibilityMPH,Wind Direction,Wind SpeedMPH,Gust SpeedMPH,PrecipitationIn,Events,Conditions,WindDirDegrees,DateUTC
12:53 AM,80.1,70.0,71,29.88,10.0,SSW,10.4,-,N/A,,Clear,200,2013-08-27 05:53:00
1:53 AM,80.1,69.1,69,29.86,10.0,SSW,11.5,-,N/A,,Clear,210,2013-08-27 06:53:00
2:53 AM,79.0,68.0,69,29.85,10.0,SSW,15.0,21.9,N/A,,Clear,210,2013-08-27 07:53:00
3:53 AM,79.0,66.9,66,29.84,10.0,SSW,12.7,20.7,N/A,,Clear,210,2013-08-27 08:53:00
4:53 AM,79.0,66.0,64,29.83,10.0,SW,16.1,24.2,N/A,,Clear,220,2013-08-27 09:53:00
5:53 AM,78.1,66.0,66,29.83,10.0,SW,13.8,21.9,N/A,,Clear,220,2013-08-27 10:53:00
6:53 AM,77.0,64.9,66,29.84,10.0,SW,8.1,-,N/A,,Clear,220,2013-08-27 11:53:00
7:53 AM,78.1,66.0,66,29.85,10.0,SW,12.7,18.4,N/A,,Clear,220,2013-08-27 12:53:00
8:53 AM,80.1,66.0,62,29.85,10.0,SW,13.8,23.0,N/A,,Clear,220,2013-08-27 13:53:00
9:53 AM,82.9,66.9,58,29.85,10.0,SW,15.0,23.0,N/A,,Clear,230,2013-08-27 14:53:00
10:53 AM,84.9,66.9,55,29.86,10.0,WSW,12.7,-,N/A,,Clear,240,2013-08-27 15:53:00
11:53 AM,87.1,68.0,53,29.86,10.0,WSW,10.4,-,N/A,,Clear,240,2013-08-27 16:53:00
12:53 PM,86.0,69.1,57,29.86,10.0,WSW,13.8,-,N/A,,Clear,240,2013-08-27 17:53:00
1:53 PM,89.1,70.0,53,29.85,10.0,WSW,12.7,-,N/A,,Clear,240,2013-08-27 18:53:00
2:53 PM,91.0,71.1,52,29.85,10.0,WSW,13.8,-,N/A,,Clear,240,2013-08-27 19:53:00
3:53 PM,91.9,72.0,52,29.84,10.0,SW,12.7,-,N/A,,Clear,230,2013-08-27 20:53:00
4:53 PM,91.9,73.0,54,29.85,10.0,SW,12.7,-,N/A,,Clear,230,2013-08-27 21:53:00
5:53 PM,91.0,73.9,57,29.85,10.0,WSW,9.2,-,N/A,,Clear,250,2013-08-27 22:53:00
6:53 PM,90.0,75.0,61,29.86,10.0,WSW,8.1,-,N/A,,Clear,250,2013-08-27 23:53:00
7:53 PM,84.9,75.9,74,29.86,10.0,SSW,4.6,-,N/A,,Clear,210,2013-08-28 00:53:00
8:53 PM,81.0,75.0,82,29.88,10.0,Calm,Calm,-,N/A,,Clear,0,2013-08-28 01:53:00
9:53 PM,78.1,73.9,87,29.89,10.0,Calm,Calm,-,N/A,,Clear,0,2013-08-28 02:53:00
10:53 PM,77.0,73.9,90,29.90,9.0,Calm,Calm,-,N/A,,Clear,0,2013-08-28 03:53:00
11:53 PM,77.0,75.0,94,29.90,3.0,Calm,Calm,-,N/A,,Clear,0,2013-08-28 04:53:00